Time,TemperatureF,DewpointF,PressureIn,WindDirection,WindDirectionDegrees,WindSpeedMPH,WindSpeedGustMPH,Humidity,HourlyPrecipIn,Conditions,Clouds,dailyrainin,SolarRadiationWatts/m^2,SoftwareType,DateUTC
2013-05-22 00:01:00,74.8,61.8,29.71,SSW,213,7.0,18.0,64,0.00,,,0.00,0,Wunderground v.1.15,2013-05-22 04:01:00,
2013-05-22 00:03:00,74.8,62.2,29.70,SW,233,6.0,18.0,65,0.00,,,0.00,0,Wunderground v.1.15,2013-05-22 04:03:00,
2013-05-22 00:04:00,74.7,62.1,29.70,SSW,200,6.0,18.0,65,0.00,,,0.00,0,Wunderground v.1.15,2013-05-22 04:04:00,
2013-05-22 00:05:00,74.7,62.1,29.71,SW,230,6.0,18.0,65,0.00,,,0.00,0,Wunderground v.1.15,2013-05-22 04:05:00,
2013-05-22 00:08:00,74.6,62.1,29.70,SSW,207,5.0,18.0,65,0.00,,,0.00,0,Wunderground v.1.15,2013-05-22 04:08:00,
2013-05-22 00:14:00,74.4,61.9,29.70,SSW,203,5.0,18.0,65,0.00,,,0.00,0,Wunderground v.1.15,2013-05-22 04:14:00,
2013-05-22 00:20:00,74.1,62.0,29.70,SW,215,5.0,5.0,66,0.00,,,0.00,0,Wunderground v.1.15,2013-05-22 04:20:00,
2013-05-22 00:26:00,73.9,62.2,29.69,SSW,207,5.0,18.0,67,0.00,,,0.00,0,Wunderground v.1.15,2013-05-22 04:26:00,
2013-05-22 00:32:00,73.6,62.0,29.70,SSW,199,5.0,18.0,67,0.00,,,0.00,0,Wunderground v.1.15,2013-05-22 04:32:00,
2013-05-22 00:38:00,73.5,62.3,29.70,SSW,209,5.0,18.0,68,0.00,,,0.00,0,Wunderground v.1.15,2013-05-22 04:38:00,
2013-05-22 00:43:00,73.4,62.2,29.70,South,188,6.0,18.0,68,0.00,,,0.00,0,Wunderground v.1.15,2013-05-22 04:43:00,
2013-05-22 00:49:00,73.3,62.1,29.71,SW,223,7.0,18.0,68,0.00,,,0.00,0,Wunderground v.1.15,2013-05-22 04:49:00,
2013-05-22 00:55:00,73.2,62.0,29.70,SSW,213,5.0,18.0,68,0.00,,,0.00,0,Wunderground v.1.15,2013-05-22 04:55:00,
2013-05-22 01:00:00,73.0,62.2,29.70,SSW,203,5.0,5.0,69,0.00,,,0.00,0,Wunderground v.1.15,2013-05-22 05:00:00,
2013-05-22 01:06:00,72.8,62.0,29.70,South,190,5.0,12.0,69,0.00,,,0.00,0,Wunderground v.1.15,2013-05-22 05:06:00,
2013-05-22 01:12:00,72.6,61.8,29.70,SSW,213,5.0,12.0,69,0.00,,,0.00,0,Wunderground v.1.15,2013-05-22 05:12:00,
2013-05-22 01:19:00,72.4,62.1,29.70,SSW,200,5.0,12.0,70,0.00,,,0.00,0,Wunderground v.1.15,2013-05-22 05:19:00,
2013-05-22 01:25:00,72.2,61.9,29.69,SW,231,6.0,12.0,70,0.00,,,0.00,0,Wunderground v.1.15,2013-05-22 05:25:00,
2013-05-22 01:30:00,72.1,62.0,29.69,SSW,203,7.0,-999.0,70,-99.99,,,0.00,,weatherlink.com 1.10,2013-05-22 05:30:00,
2013-05-22 01:35:00,72.1,61.8,29.69,SSW,198,7.0,12.0,70,0.00,,,0.00,0,Wunderground v.1.15,2013-05-22 05:35:00,
2013-05-22 01:41:00,71.9,61.6,29.68,SSW,203,6.0,9.0,70,0.00,,,0.00,0,Wunderground v.1.15,2013-05-22 05:41:00,
2013-05-22 01:47:00,71.7,61.8,29.69,SSW,206,4.0,12.0,71,0.00,,,0.00,0,Wunderground v.1.15,2013-05-22 05:47:00,
2013-05-22 01:52:00,71.5,62.0,29.69,SSW,206,3.0,12.0,72,0.00,,,0.00,0,Wunderground v.1.15,2013-05-22 05:52:00,
2013-05-22 01:58:00,71.3,61.8,29.70,SSW,200,4.0,12.0,72,0.00,,,0.00,0,Wunderground v.1.15,2013-05-22 05:58:00,
2013-05-22 02:04:00,71.2,61.7,29.69,SW,225,4.0,14.0,72,0.00,,,0.00,0,Wunderground v.1.15,2013-05-22 06:04:00,
2013-05-22 02:09:00,71.1,61.6,29.70,SSW,207,3.0,14.0,72,0.00,,,0.00,0,Wunderground v.1.15,2013-05-22 06:09:00,
2013-05-22 02:15:00,70.9,61.4,29.69,SSW,200,4.0,14.0,72,0.00,,,0.00,0,Wunderground v.1.15,2013-05-22 06:15:00,
2013-05-22 02:20:00,70.7,61.6,29.69,SSW,206,4.0,14.0,73,0.00,,,0.00,0,Wunderground v.1.15,2013-05-22 06:20:00,
2013-05-22 02:26:00,70.6,61.5,29.69,SW,218,5.0,14.0,73,0.00,,,0.00,0,Wunderground v.1.15,2013-05-22 06:26:00,
2013-05-22 02:32:00,70.5,61.4,29.69,SSW,198,5.0,14.0,73,0.00,,,0.00,0,Wunderground v.1.15,2013-05-22 06:32:00,
2013-05-22 02:38:00,70.4,61.3,29.68,SSW,209,4.0,14.0,73,0.00,,,0.00,0,Wunderground v.1.15,2013-05-22 06:38:00,
2013-05-22 02:43:00,70.4,61.3,29.68,South,181,4.0,14.0,73,0.00,,,0.00,0,Wunderground v.1.15,2013-05-22 06:43:00,
2013-05-22 02:49:00,70.4,61.3,29.68,SSW,211,4.0,14.0,73,0.00,,,0.00,0,Wunderground v.1.15,2013-05-22 06:49:00,
2013-05-22 02:55:00,70.4,61.3,29.68,SW,215,5.0,14.0,73,0.00,,,0.00,0,Wunderground v.1.15,2013-05-22 06:55:00,
2013-05-22 03:00:00,70.5,61.4,29.69,SSW,197,5.0,7.0,73,0.00,,,0.00,0,Wunderground v.1.15,2013-05-22 07:00:00,
2013-05-22 03:06:00,70.5,61.4,29.69,SSW,199,6.0,11.0,73,0.00,,,0.00,0,Wunderground v.1.15,2013-05-22 07:06:00,
2013-05-22 03:12:00,70.5,61.4,29.69,SSW,202,5.0,11.0,73,0.00,,,0.00,0,Wunderground v.1.15,2013-05-22 07:12:00,
2013-05-22 03:18:00,70.6,61.5,29.68,SSW,202,5.0,11.0,73,0.00,,,0.00,0,Wunderground v.1.15,2013-05-22 07:18:00,
2013-05-22 03:24:00,70.5,61.4,29.68,SW,216,5.0,11.0,73,0.00,,,0.00,0,Wunderground v.1.15,2013-05-22 07:24:00,
2013-05-22 03:30:00,70.4,61.0,29.68,SSW,203,4.0,-999.0,73,-99.99,,,0.00,,weatherlink.com 1.10,2013-05-22 07:30:00,
2013-05-22 03:35:00,70.4,61.3,29.68,South,191,5.0,11.0,73,0.00,,,0.00,0,Wunderground v.1.15,2013-05-22 07:35:00,
2013-05-22 03:40:00,70.4,61.7,29.68,SSW,207,4.0,11.0,74,0.00,,,0.00,0,Wunderground v.1.15,2013-05-22 07:40:00,
2013-05-22 03:46:00,70.4,61.7,29.68,SSW,194,4.0,11.0,74,0.00,,,0.00,0,Wunderground v.1.15,2013-05-22 07:46:00,
2013-05-22 03:52:00,70.5,61.8,29.68,SSW,204,5.0,11.0,74,0.00,,,0.00,0,Wunderground v.1.15,2013-05-22 07:52:00,
2013-05-22 03:58:00,70.5,61.8,29.67,SSW,195,5.0,11.0,74,0.00,,,0.00,0,Wunderground v.1.15,2013-05-22 07:58:00,
2013-05-22 04:03:00,70.4,61.7,29.67,SSW,209,2.0,12.0,74,0.00,,,0.00,0,Wunderground v.1.15,2013-05-22 08:03:00,
2013-05-22 04:09:00,70.3,61.6,29.67,SSW,198,1.0,12.0,74,0.00,,,0.00,0,Wunderground v.1.15,2013-05-22 08:09:00,
2013-05-22 04:15:00,70.3,62.0,29.67,SW,214,6.0,-999.0,75,-99.99,,,0.00,,weatherlink.com 1.10,2013-05-22 08:15:00,
2013-05-22 04:20:00,70.2,61.9,29.67,SSW,198,3.0,12.0,75,0.00,,,0.00,0,Wunderground v.1.15,2013-05-22 08:20:00,
2013-05-22 04:26:00,70.1,61.8,29.67,SSW,195,3.0,12.0,75,0.00,,,0.00,0,Wunderground v.1.15,2013-05-22 08:26:00,
2013-05-22 04:32:00,70.1,61.8,29.67,South,185,4.0,12.0,75,0.00,,,0.00,0,Wunderground v.1.15,2013-05-22 08:32:00,
2013-05-22 04:37:00,70.0,61.7,29.67,SSW,211,4.0,12.0,75,0.00,,,0.00,0,Wunderground v.1.15,2013-05-22 08:37:00,
2013-05-22 04:43:00,69.9,62.0,29.67,SSW,195,5.0,12.0,76,0.00,,,0.00,0,Wunderground v.1.15,2013-05-22 08:43:00,
2013-05-22 04:49:00,69.9,62.0,29.67,SSW,201,6.0,13.0,76,0.00,,,0.00,0,Wunderground v.1.15,2013-05-22 08:49:00,
2013-05-22 04:55:00,69.8,61.9,29.67,SSW,213,5.0,12.0,76,0.00,,,0.00,0,Wunderground v.1.15,2013-05-22 08:55:00,
2013-05-22 05:00:00,69.8,62.3,29.67,SSW,207,5.0,5.0,77,0.00,,,0.00,0,Wunderground v.1.15,2013-05-22 09:00:00,
2013-05-22 05:06:00,69.8,62.3,29.67,South,172,4.0,10.0,77,0.00,,,0.00,0,Wunderground v.1.15,2013-05-22 09:06:00,
2013-05-22 05:11:00,69.8,62.3,29.66,SSW,207,5.0,10.0,77,0.00,,,0.00,0,Wunderground v.1.15,2013-05-22 09:11:00,
2013-05-22 05:17:00,69.7,62.5,29.67,SW,217,4.0,10.0,78,0.00,,,0.00,0,Wunderground v.1.15,2013-05-22 09:17:00,
2013-05-22 05:22:00,69.7,62.5,29.67,SSW,194,5.0,10.0,78,0.00,,,0.00,0,Wunderground v.1.15,2013-05-22 09:22:00,
2013-05-22 05:28:00,69.7,62.5,29.66,SSW,196,6.0,10.0,78,0.00,,,0.00,0,Wunderground v.1.15,2013-05-22 09:28:00,
2013-05-22 05:34:00,69.7,62.9,29.66,SW,219,6.0,10.0,79,0.00,,,0.00,0,Wunderground v.1.15,2013-05-22 09:34:00,
2013-05-22 05:40:00,69.6,62.8,29.66,SSW,203,5.0,10.0,79,0.00,,,0.00,0,Wunderground v.1.15,2013-05-22 09:40:00,
2013-05-22 05:45:00,69.6,63.0,29.67,South,183,8.0,-999.0,79,-99.99,,,0.00,,weatherlink.com 1.10,2013-05-22 09:45:00,
2013-05-22 05:51:00,69.6,62.8,29.67,WSW,238,7.0,10.0,79,0.00,,,0.00,0,Wunderground v.1.15,2013-05-22 09:51:00,
2013-05-22 05:57:00,69.5,62.7,29.67,SW,214,6.0,10.0,79,0.00,,,0.00,0,Wunderground v.1.15,2013-05-22 09:57:00,
2013-05-22 06:02:00,69.5,62.7,29.67,South,191,6.0,16.0,79,0.00,,,0.00,0,Wunderground v.1.15,2013-05-22 10:02:00,
2013-05-22 06:08:00,69.5,62.7,29.67,SSW,210,8.0,16.0,79,0.00,,,0.00,0,Wunderground v.1.15,2013-05-22 10:08:00,
2013-05-22 06:14:00,69.4,62.6,29.67,SSW,198,6.0,16.0,79,0.00,,,0.00,0,Wunderground v.1.15,2013-05-22 10:14:00,
2013-05-22 06:20:00,69.4,62.6,29.68,SSW,207,6.0,6.0,79,0.00,,,0.00,0,Wunderground v.1.15,2013-05-22 10:20:00,
2013-05-22 06:25:00,69.3,62.9,29.68,SSE,163,6.0,16.0,80,0.00,,,0.00,0,Wunderground v.1.15,2013-05-22 10:25:00,
2013-05-22 06:31:00,69.3,63.0,29.68,SSW,193,12.0,-999.0,79,-99.99,,,0.00,,weatherlink.com 1.10,2013-05-22 10:31:00,
2013-05-22 06:36:00,69.3,62.5,29.68,SW,219,8.0,16.0,79,0.00,,,0.00,5,Wunderground v.1.15,2013-05-22 10:36:00,
2013-05-22 06:41:00,69.2,62.4,29.68,SSW,206,6.0,16.0,79,0.00,,,0.00,11,Wunderground v.1.15,2013-05-22 10:41:00,
2013-05-22 06:47:00,69.1,62.3,29.68,SW,232,8.0,16.0,79,0.00,,,0.00,14,Wunderground v.1.15,2013-05-22 10:47:00,
2013-05-22 06:53:00,69.0,62.2,29.68,SSW,211,10.0,16.0,79,0.00,,,0.00,18,Wunderground v.1.15,2013-05-22 10:53:00,
2013-05-22 06:59:00,69.0,62.2,29.68,SSW,212,9.0,16.0,79,0.00,,,0.00,16,Wunderground v.1.15,2013-05-22 10:59:00,
2013-05-22 07:04:00,68.9,62.1,29.68,South,188,6.0,18.0,79,0.00,,,0.00,18,Wunderground v.1.15,2013-05-22 11:04:00,
2013-05-22 07:10:00,68.9,62.1,29.68,SSW,209,5.0,18.0,79,0.00,,,0.00,25,Wunderground v.1.15,2013-05-22 11:10:00,
2013-05-22 07:16:00,68.8,62.0,29.68,SW,223,7.0,18.0,79,0.00,,,0.00,25,Wunderground v.1.15,2013-05-22 11:16:00,
2013-05-22 07:22:00,68.7,61.9,29.69,SW,215,7.0,18.0,79,0.00,,,0.00,19,Wunderground v.1.15,2013-05-22 11:22:00,
2013-05-22 07:27:00,68.7,61.9,29.68,SSW,206,7.0,18.0,79,0.00,,,0.00,16,Wunderground v.1.15,2013-05-22 11:27:00,
2013-05-22 07:33:00,68.7,61.9,29.69,SW,224,6.0,18.0,79,0.00,,,0.00,19,Wunderground v.1.15,2013-05-22 11:33:00,
2013-05-22 07:39:00,68.6,61.8,29.68,SSW,211,6.0,18.0,79,0.00,,,0.00,25,Wunderground v.1.15,2013-05-22 11:39:00,
2013-05-22 07:45:00,68.6,62.0,29.69,SW,221,3.0,-999.0,79,-99.99,,,0.00,,weatherlink.com 1.10,2013-05-22 11:45:00,
2013-05-22 07:51:00,68.4,62.0,29.69,SW,216,6.0,18.0,80,0.00,,,0.00,16,Wunderground v.1.15,2013-05-22 11:51:00,
2013-05-22 07:57:00,68.2,62.1,29.69,SSW,212,5.0,18.0,81,0.00,,,0.00,18,Wunderground v.1.15,2013-05-22 11:57:00,
2013-05-22 08:02:00,68.1,62.0,29.68,SSW,200,5.0,17.0,81,0.00,,,0.00,32,Wunderground v.1.15,2013-05-22 12:02:00,
2013-05-22 08:08:00,68.1,62.0,29.69,SSW,201,5.0,17.0,81,0.00,,,0.00,35,Wunderground v.1.15,2013-05-22 12:08:00,
2013-05-22 08:14:00,68.2,62.1,29.69,SSW,210,5.0,17.0,81,0.00,,,0.00,46,Wunderground v.1.15,2013-05-22 12:14:00,
2013-05-22 08:20:00,68.2,62.1,29.68,SW,218,4.0,17.0,81,0.00,,,0.00,33,Wunderground v.1.15,2013-05-22 12:20:00,
2013-05-22 08:26:00,68.3,61.9,29.68,SSW,207,4.0,17.0,80,0.00,,,0.00,42,Wunderground v.1.15,2013-05-22 12:26:00,
2013-05-22 08:31:00,68.3,61.9,29.68,SSW,209,5.0,17.0,80,0.00,,,0.00,46,Wunderground v.1.15,2013-05-22 12:31:00,
2013-05-22 08:37:00,68.4,62.0,29.68,South,190,4.0,17.0,80,0.00,,,0.00,53,Wunderground v.1.15,2013-05-22 12:37:00,
2013-05-22 08:43:00,68.5,62.4,29.68,SSW,213,3.0,17.0,81,0.00,,,0.00,77,Wunderground v.1.15,2013-05-22 12:43:00,
2013-05-22 08:49:00,68.6,62.5,29.67,SSW,205,2.0,17.0,81,0.00,,,0.00,123,Wunderground v.1.15,2013-05-22 12:49:00,
2013-05-22 08:54:00,68.8,62.4,29.67,SW,218,2.0,17.0,80,0.00,,,0.00,141,Wunderground v.1.15,2013-05-22 12:54:00,
2013-05-22 09:00:00,69.0,63.0,29.67,SSW,208,4.0,-999.0,81,-99.99,,,0.00,,weatherlink.com 1.10,2013-05-22 13:00:00,
2013-05-22 09:05:00,69.2,63.1,29.67,SSW,209,3.0,11.0,81,0.00,,,0.00,128,Wunderground v.1.15,2013-05-22 13:05:00,
2013-05-22 09:11:00,69.4,63.0,29.67,SSW,200,2.0,11.0,80,0.00,,,0.00,262,Wunderground v.1.15,2013-05-22 13:11:00,
2013-05-22 09:16:00,69.9,63.4,29.67,SSW,196,3.0,11.0,80,0.00,,,0.00,237,Wunderground v.1.15,2013-05-22 13:16:00,
2013-05-22 09:22:00,70.4,62.8,29.67,SSW,206,5.0,14.0,77,0.00,,,0.00,380,Wunderground v.1.15,2013-05-22 13:22:00,
2013-05-22 09:28:00,70.4,63.2,29.67,East,79,8.0,16.0,78,0.00,,,0.00,220,Wunderground v.1.15,2013-05-22 13:28:00,
2013-05-22 09:34:00,70.4,63.2,29.67,SSW,202,5.0,11.0,78,0.00,,,0.00,169,Wunderground v.1.15,2013-05-22 13:34:00,
2013-05-22 09:40:00,70.4,62.8,29.67,SSW,206,5.0,11.0,77,0.00,,,0.00,162,Wunderground v.1.15,2013-05-22 13:40:00,
2013-05-22 09:45:00,70.3,63.0,29.67,SSW,202,7.0,-999.0,77,-99.99,,,0.00,,weatherlink.com 1.10,2013-05-22 13:45:00,
2013-05-22 09:50:00,70.3,62.4,29.67,WSW,240,7.0,11.0,76,0.00,,,0.00,116,Wunderground v.1.15,2013-05-22 13:50:00,
2013-05-22 09:55:00,70.3,62.4,29.67,SSW,202,7.0,11.0,76,0.00,,,0.00,109,Wunderground v.1.15,2013-05-22 13:55:00,
2013-05-22 10:00:00,70.3,62.4,29.67,SSW,209,6.0,6.0,76,0.00,,,0.00,62,Wunderground v.1.15,2013-05-22 14:00:00,
2013-05-22 10:06:00,70.1,62.2,29.67,SSW,204,5.0,17.0,76,0.00,,,0.00,30,Wunderground v.1.15,2013-05-22 14:06:00,
2013-05-22 10:11:00,69.8,62.3,29.67,ENE,69,6.0,17.0,77,0.00,,,0.00,76,Wunderground v.1.15,2013-05-22 14:11:00,
2013-05-22 10:17:00,69.8,62.3,29.67,SW,215,6.0,17.0,77,0.00,,,0.00,132,Wunderground v.1.15,2013-05-22 14:17:00,
2013-05-22 10:23:00,69.9,62.0,29.67,SSW,194,7.0,17.0,76,0.00,,,0.00,139,Wunderground v.1.15,2013-05-22 14:23:00,
2013-05-22 10:28:00,70.2,62.3,29.66,SW,215,8.0,17.0,76,0.00,,,0.00,221,Wunderground v.1.15,2013-05-22 14:28:00,
2013-05-22 10:34:00,70.4,62.1,29.66,South,173,6.0,17.0,75,0.00,,,0.00,195,Wunderground v.1.15,2013-05-22 14:34:00,
2013-05-22 10:39:00,70.4,61.7,29.66,SSW,198,8.0,17.0,74,0.00,,,0.00,199,Wunderground v.1.15,2013-05-22 14:39:00,
2013-05-22 10:45:00,70.5,61.8,29.66,SSW,196,9.0,19.0,74,0.00,,,0.00,301,Wunderground v.1.15,2013-05-22 14:45:00,
2013-05-22 10:50:00,71.0,62.7,29.65,South,188,6.0,6.0,75,0.00,,,0.00,468,Wunderground v.1.15,2013-05-22 14:50:00,
2013-05-22 10:56:00,71.6,62.9,29.65,South,183,4.0,17.0,74,0.00,,,0.00,427,Wunderground v.1.15,2013-05-22 14:56:00,
2013-05-22 11:02:00,71.5,63.2,29.65,SSW,196,6.0,20.0,75,0.00,,,0.00,343,Wunderground v.1.15,2013-05-22 15:02:00,
2013-05-22 11:08:00,71.5,63.2,29.64,South,188,3.0,20.0,75,0.00,,,0.00,376,Wunderground v.1.15,2013-05-22 15:08:00,
2013-05-22 11:14:00,71.5,62.4,29.64,SSW,202,2.0,20.0,73,0.00,,,0.00,380,Wunderground v.1.15,2013-05-22 15:14:00,
2013-05-22 11:20:00,71.3,62.6,29.63,East,83,4.0,4.0,74,0.00,,,0.00,420,Wunderground v.1.15,2013-05-22 15:20:00,
2013-05-22 11:26:00,71.5,63.2,29.64,NW,317,5.0,20.0,75,0.00,,,0.00,494,Wunderground v.1.15,2013-05-22 15:26:00,
2013-05-22 11:31:00,71.5,63.2,29.65,NE,37,6.0,20.0,75,0.00,,,0.00,531,Wunderground v.1.15,2013-05-22 15:31:00,
2013-05-22 11:36:00,72.3,63.5,29.65,WSW,237,6.0,20.0,74,0.00,,,0.00,986,Wunderground v.1.15,2013-05-22 15:36:00,
2013-05-22 11:42:00,72.1,61.4,29.65,SW,228,10.0,25.0,69,0.00,,,0.00,603,Wunderground v.1.15,2013-05-22 15:42:00,
2013-05-22 11:48:00,71.6,61.7,29.66,SSW,198,13.0,25.0,71,0.00,,,0.00,425,Wunderground v.1.15,2013-05-22 15:48:00,
2013-05-22 11:53:00,71.5,62.4,29.66,SSW,204,11.0,20.0,73,0.00,,,0.00,431,Wunderground v.1.15,2013-05-22 15:53:00,
2013-05-22 11:59:00,71.1,62.0,29.67,SSW,203,12.0,20.0,73,0.00,,,0.00,404,Wunderground v.1.15,2013-05-22 15:59:00,
2013-05-22 12:04:00,71.1,62.8,29.67,SSW,205,11.0,20.0,75,0.00,,,0.00,508,Wunderground v.1.15,2013-05-22 16:04:00,
2013-05-22 12:10:00,71.3,62.6,29.67,SSW,202,10.0,20.0,74,0.00,,,0.00,350,Wunderground v.1.15,2013-05-22 16:10:00,
2013-05-22 12:16:00,71.7,62.6,29.67,SSW,209,10.0,20.0,73,0.00,,,0.00,360,Wunderground v.1.15,2013-05-22 16:16:00,
2013-05-22 12:21:00,71.4,62.3,29.67,SSW,205,11.0,20.0,73,0.00,,,0.00,322,Wunderground v.1.15,2013-05-22 16:21:00,
2013-05-22 12:27:00,72.5,63.4,29.66,South,191,10.0,20.0,73,0.00,,,0.00,1049,Wunderground v.1.15,2013-05-22 16:27:00,
2013-05-22 12:33:00,73.6,62.8,29.66,NNE,28,7.0,20.0,69,0.00,,,0.00,969,Wunderground v.1.15,2013-05-22 16:33:00,
2013-05-22 12:39:00,74.6,62.5,29.66,SSW,197,7.0,20.0,66,0.00,,,0.00,1051,Wunderground v.1.15,2013-05-22 16:39:00,
2013-05-22 12:45:00,75.2,62.0,29.66,South,191,12.0,-999.0,64,-99.99,,,0.00,,weatherlink.com 1.10,2013-05-22 16:45:00,
2013-05-22 12:51:00,74.5,60.6,29.66,SSW,197,12.0,20.0,62,0.00,,,0.00,930,Wunderground v.1.15,2013-05-22 16:51:00,
2013-05-22 12:57:00,75.3,60.5,29.66,SSW,196,13.0,20.0,60,0.00,,,0.00,1188,Wunderground v.1.15,2013-05-22 16:57:00,
2013-05-22 13:03:00,76.2,61.8,29.66,South,182,14.0,23.0,61,0.00,,,0.00,279,Wunderground v.1.15,2013-05-22 17:03:00,
2013-05-22 13:08:00,76.4,61.5,29.65,SSW,200,11.0,23.0,60,0.00,,,0.00,1127,Wunderground v.1.15,2013-05-22 17:08:00,
2013-05-22 13:14:00,76.2,60.8,29.65,SW,220,11.0,23.0,59,0.00,,,0.00,1218,Wunderground v.1.15,2013-05-22 17:14:00,
2013-05-22 13:20:00,76.1,60.2,29.65,SSW,209,10.0,23.0,58,0.00,,,0.00,318,Wunderground v.1.15,2013-05-22 17:20:00,
2013-05-22 13:25:00,75.9,60.5,29.65,SSW,208,10.0,23.0,59,0.00,,,0.00,343,Wunderground v.1.15,2013-05-22 17:25:00,
2013-05-22 13:31:00,75.3,59.5,29.65,SSW,209,13.0,23.0,58,0.00,,,0.00,408,Wunderground v.1.15,2013-05-22 17:31:00,
2013-05-22 13:36:00,75.6,59.8,29.65,SSW,213,13.0,23.0,58,0.00,,,0.00,543,Wunderground v.1.15,2013-05-22 17:36:00,
2013-05-22 13:42:00,76.1,59.3,29.65,SW,221,13.0,23.0,56,0.00,,,0.00,418,Wunderground v.1.15,2013-05-22 17:42:00,
2013-05-22 13:48:00,75.9,58.6,29.65,West,279,12.0,23.0,55,0.00,,,0.00,248,Wunderground v.1.15,2013-05-22 17:48:00,
2013-05-22 13:53:00,75.4,59.1,29.64,SSW,193,12.0,23.0,57,0.00,,,0.00,204,Wunderground v.1.15,2013-05-22 17:53:00,
2013-05-22 13:58:00,75.4,60.5,29.65,SSW,198,9.0,23.0,60,0.00,,,0.00,417,Wunderground v.1.15,2013-05-22 17:58:00,
2013-05-22 14:04:00,75.9,59.6,29.64,SSW,205,11.0,24.0,57,0.00,,,0.00,248,Wunderground v.1.15,2013-05-22 18:04:00,
2013-05-22 14:10:00,75.5,59.2,29.64,South,173,15.0,15.0,57,0.00,,,0.00,279,Wunderground v.1.15,2013-05-22 18:10:00,
2013-05-22 14:15:00,75.7,59.9,29.64,South,177,15.0,24.0,58,0.00,,,0.00,434,Wunderground v.1.15,2013-05-22 18:15:00,
2013-05-22 14:21:00,76.0,60.2,29.64,SSW,203,16.0,24.0,58,0.00,,,0.00,652,Wunderground v.1.15,2013-05-22 18:21:00,
2013-05-22 14:27:00,76.2,59.4,29.64,SW,217,16.0,24.0,56,0.00,,,0.00,510,Wunderground v.1.15,2013-05-22 18:27:00,
2013-05-22 14:33:00,75.8,59.5,29.64,SSW,207,16.0,24.0,57,0.00,,,0.00,232,Wunderground v.1.15,2013-05-22 18:33:00,
2013-05-22 14:39:00,75.1,59.3,29.64,SW,225,15.0,24.0,58,0.00,,,0.00,216,Wunderground v.1.15,2013-05-22 18:39:00,
2013-05-22 14:45:00,75.0,60.0,29.64,SW,236,6.0,-999.0,60,-99.99,,,0.00,,weatherlink.com 1.10,2013-05-22 18:45:00,
2013-05-22 14:50:00,74.8,60.0,29.64,SSW,194,10.0,10.0,60,0.00,,,0.00,162,Wunderground v.1.15,2013-05-22 18:50:00,
2013-05-22 14:55:00,74.7,59.9,29.64,South,175,10.0,24.0,60,0.00,,,0.00,123,Wunderground v.1.15,2013-05-22 18:55:00,
2013-05-22 15:00:00,74.7,60.4,29.64,SSW,205,8.0,11.0,61,0.00,,,0.00,76,Wunderground v.1.15,2013-05-22 19:00:00,
2013-05-22 15:07:00,73.7,60.8,29.64,WSW,254,5.0,27.0,64,0.00,,,0.00,53,Wunderground v.1.15,2013-05-22 19:07:00,
2013-05-22 15:13:00,69.6,62.4,29.66,West,263,9.0,27.0,78,1.04,,,0.07,63,Wunderground v.1.15,2013-05-22 19:13:00,
2013-05-22 15:19:00,66.8,62.5,29.67,WSW,247,12.0,27.0,86,0.10,,,0.08,39,Wunderground v.1.15,2013-05-22 19:19:00,
2013-05-22 15:24:00,66.1,62.8,29.67,SSW,201,8.0,27.0,89,0.05,,,0.08,169,Wunderground v.1.15,2013-05-22 19:24:00,
2013-05-22 15:30:00,66.3,63.0,29.66,SW,223,11.0,-999.0,90,-99.99,,,0.09,,weatherlink.com 1.10,2013-05-22 19:30:00,
2013-05-22 15:35:00,66.9,63.6,29.66,SW,227,5.0,27.0,89,0.05,,,0.09,536,Wunderground v.1.15,2013-05-22 19:35:00,
2013-05-22 15:41:00,68.0,63.7,29.66,WSW,252,8.0,27.0,86,0.04,,,0.09,935,Wunderground v.1.15,2013-05-22 19:41:00,
2013-05-22 15:47:00,67.8,63.0,29.66,West,267,6.0,-999.0,84,-99.99,,,0.09,,weatherlink.com 1.10,2013-05-22 19:47:00,
2013-05-22 15:53:00,68.2,63.5,29.66,West,261,8.0,27.0,85,0.00,,,0.09,991,Wunderground v.1.15,2013-05-22 19:53:00,
2013-05-22 15:58:00,69.1,64.4,29.65,West,260,8.0,27.0,85,0.00,,,0.09,893,Wunderground v.1.15,2013-05-22 19:58:00,
2013-05-22 16:04:00,69.7,64.3,29.65,SW,234,9.0,28.0,83,0.00,,,0.09,824,Wunderground v.1.15,2013-05-22 20:04:00,
2013-05-22 16:09:00,70.5,64.0,29.64,SSW,206,10.0,28.0,80,0.00,,,0.09,828,Wunderground v.1.15,2013-05-22 20:09:00,
2013-05-22 16:15:00,71.1,64.0,29.64,South,186,16.0,-999.0,77,-99.99,,,0.09,,weatherlink.com 1.10,2013-05-22 20:15:00,
2013-05-22 16:21:00,72.1,63.4,29.64,SW,223,12.0,14.0,74,0.00,,,0.09,791,Wunderground v.1.15,2013-05-22 20:21:00,
2013-05-22 16:27:00,73.3,63.7,29.63,West,278,9.0,28.0,72,0.00,,,0.09,777,Wunderground v.1.15,2013-05-22 20:27:00,
2013-05-22 16:33:00,73.9,62.7,29.62,SSW,204,10.0,28.0,68,0.00,,,0.09,840,Wunderground v.1.15,2013-05-22 20:33:00,
2013-05-22 16:39:00,74.4,63.1,29.63,SW,226,13.0,28.0,68,0.00,,,0.09,765,Wunderground v.1.15,2013-05-22 20:39:00,
2013-05-22 16:44:00,74.5,62.4,29.62,SW,224,13.0,28.0,66,0.00,,,0.09,250,Wunderground v.1.15,2013-05-22 20:44:00,
2013-05-22 16:50:00,74.3,61.8,29.63,SW,229,15.0,15.0,65,0.00,,,0.09,441,Wunderground v.1.15,2013-05-22 20:50:00,
2013-05-22 16:56:00,74.4,61.0,29.62,SSW,213,14.0,28.0,63,0.00,,,0.09,343,Wunderground v.1.15,2013-05-22 20:56:00,
2013-05-22 17:02:00,74.6,60.7,29.62,SSW,194,12.0,24.0,62,0.00,,,0.09,410,Wunderground v.1.15,2013-05-22 21:02:00,
2013-05-22 17:07:00,75.0,60.6,29.62,WSW,237,12.0,24.0,61,0.00,,,0.09,526,Wunderground v.1.15,2013-05-22 21:07:00,
2013-05-22 17:13:00,74.8,60.4,29.62,SSW,200,12.0,24.0,61,0.00,,,0.09,260,Wunderground v.1.15,2013-05-22 21:13:00,
2013-05-22 17:19:00,74.8,60.4,29.61,SW,221,11.0,24.0,61,0.00,,,0.09,751,Wunderground v.1.15,2013-05-22 21:19:00,
2013-05-22 17:24:00,74.8,60.0,29.61,SW,235,11.0,24.0,60,0.00,,,0.09,206,Wunderground v.1.15,2013-05-22 21:24:00,
2013-05-22 17:30:00,75.2,60.0,29.61,SSW,209,13.0,-999.0,60,-99.99,,,0.09,,weatherlink.com 1.10,2013-05-22 21:30:00,
2013-05-22 17:35:00,75.5,60.2,29.61,WSW,239,11.0,24.0,59,0.00,,,0.09,573,Wunderground v.1.15,2013-05-22 21:35:00,
2013-05-22 17:41:00,75.8,60.0,29.60,SW,222,13.0,24.0,58,0.00,,,0.09,571,Wunderground v.1.15,2013-05-22 21:41:00,
2013-05-22 17:46:00,75.8,59.0,29.60,SSW,201,11.0,-999.0,57,-99.99,,,0.09,,weatherlink.com 1.10,2013-05-22 21:46:00,
2013-05-22 17:52:00,75.5,59.7,29.60,SW,217,13.0,24.0,58,0.00,,,0.09,383,Wunderground v.1.15,2013-05-22 21:52:00,
2013-05-22 17:58:00,75.6,59.8,29.60,SW,219,11.0,24.0,58,0.00,,,0.09,380,Wunderground v.1.15,2013-05-22 21:58:00,
2013-05-22 18:03:00,74.8,59.5,29.61,West,259,10.0,23.0,59,0.00,,,0.09,39,Wunderground v.1.15,2013-05-22 22:03:00,
2013-05-22 18:09:00,73.3,59.0,29.63,WSW,249,13.0,23.0,61,0.00,,,0.09,26,Wunderground v.1.15,2013-05-22 22:09:00,
2013-05-22 18:15:00,67.2,59.0,29.63,West,263,7.0,-999.0,76,-99.99,,,0.11,,weatherlink.com 1.10,2013-05-22 22:15:00,
2013-05-22 18:23:00,65.6,60.3,29.63,West,275,9.0,23.0,83,0.17,,,0.14,178,Wunderground v.1.15,2013-05-22 22:23:00,
2013-05-22 18:28:00,65.7,60.7,29.63,West,263,6.0,23.0,84,0.07,,,0.14,149,Wunderground v.1.15,2013-05-22 22:28:00,
2013-05-22 18:34:00,66.1,61.5,29.63,WSW,238,3.0,23.0,85,0.04,,,0.14,236,Wunderground v.1.15,2013-05-22 22:34:00,
2013-05-22 18:40:00,66.9,61.6,29.63,SW,233,3.0,23.0,83,0.00,,,0.14,246,Wunderground v.1.15,2013-05-22 22:40:00,
2013-05-22 18:46:00,67.6,62.0,29.63,WSW,245,4.0,-999.0,83,-99.99,,,0.14,,weatherlink.com 1.10,2013-05-22 22:46:00,
2013-05-22 18:51:00,68.0,62.3,29.63,West,278,5.0,10.0,82,0.00,,,0.14,230,Wunderground v.1.15,2013-05-22 22:51:00,
2013-05-22 18:57:00,68.2,62.1,29.63,WSW,257,6.0,23.0,81,0.00,,,0.14,207,Wunderground v.1.15,2013-05-22 22:57:00,
2013-05-22 19:02:00,68.6,62.5,29.64,WNW,291,6.0,33.0,81,0.00,,,0.14,304,Wunderground v.1.15,2013-05-22 23:02:00,
2013-05-22 19:08:00,68.9,62.5,29.64,SW,234,4.0,33.0,80,0.00,,,0.14,186,Wunderground v.1.15,2013-05-22 23:08:00,
2013-05-22 19:14:00,68.8,62.4,29.64,SW,218,4.0,33.0,80,0.00,,,0.14,118,Wunderground v.1.15,2013-05-22 23:14:00,
2013-05-22 19:20:00,68.6,62.2,29.65,WSW,245,4.0,4.0,80,0.00,,,0.14,72,Wunderground v.1.15,2013-05-22 23:20:00,
2013-05-22 19:26:00,68.6,61.8,29.65,WSW,244,4.0,33.0,79,0.00,,,0.14,70,Wunderground v.1.15,2013-05-22 23:26:00,
2013-05-22 19:31:00,68.8,61.0,29.65,West,260,2.0,-999.0,77,-99.99,,,0.14,,weatherlink.com 1.10,2013-05-22 23:31:00,
2013-05-22 19:36:00,68.8,60.9,29.65,WSW,256,7.0,33.0,76,0.00,,,0.14,74,Wunderground v.1.15,2013-05-22 23:36:00,
2013-05-22 19:42:00,68.9,61.0,29.65,SW,236,5.0,33.0,76,0.00,,,0.14,114,Wunderground v.1.15,2013-05-22 23:42:00,
2013-05-22 19:48:00,68.9,61.0,29.66,West,263,6.0,33.0,76,0.00,,,0.14,77,Wunderground v.1.15,2013-05-22 23:48:00,
2013-05-22 19:53:00,68.8,60.9,29.66,WSW,245,5.0,33.0,76,0.00,,,0.14,58,Wunderground v.1.15,2013-05-22 23:53:00,
2013-05-22 19:59:00,68.9,61.0,29.66,WSW,252,5.0,33.0,76,0.00,,,0.14,40,Wunderground v.1.15,2013-05-22 23:59:00,
2013-05-22 20:05:00,68.9,61.0,29.66,WNW,286,5.0,16.0,76,0.00,,,0.14,49,Wunderground v.1.15,2013-05-23 00:05:00,
2013-05-22 20:10:00,68.8,60.9,29.66,West,259,5.0,5.0,76,0.00,,,0.14,63,Wunderground v.1.15,2013-05-23 00:10:00,
2013-05-22 20:16:00,68.8,61.3,29.66,West,266,4.0,16.0,77,0.00,,,0.14,46,Wunderground v.1.15,2013-05-23 00:16:00,
2013-05-22 20:22:00,68.7,60.8,29.67,WSW,251,3.0,16.0,76,0.00,,,0.14,33,Wunderground v.1.15,2013-05-23 00:22:00,
2013-05-22 20:28:00,68.7,60.5,29.67,West,263,4.0,16.0,75,0.00,,,0.14,28,Wunderground v.1.15,2013-05-23 00:28:00,
2013-05-22 20:34:00,68.6,60.4,29.66,WSW,252,3.0,16.0,75,0.00,,,0.14,26,Wunderground v.1.15,2013-05-23 00:34:00,
2013-05-22 20:39:00,68.5,60.3,29.66,WSW,254,2.0,16.0,75,0.00,,,0.14,23,Wunderground v.1.15,2013-05-23 00:39:00,
2013-05-22 20:45:00,68.5,60.0,29.66,West,265,3.0,-999.0,75,-99.99,,,0.14,,weatherlink.com 1.10,2013-05-23 00:45:00,
2013-05-22 20:51:00,68.3,60.4,29.66,West,264,1.0,16.0,76,0.00,,,0.14,16,Wunderground v.1.15,2013-05-23 00:51:00,
2013-05-22 20:57:00,68.2,60.3,29.66,West,264,0.0,16.0,76,0.00,,,0.14,12,Wunderground v.1.15,2013-05-23 00:57:00,
2013-05-22 21:02:00,68.1,60.2,29.66,SW,218,0.0,12.0,76,0.00,,,0.14,9,Wunderground v.1.15,2013-05-23 01:02:00,
2013-05-22 21:08:00,67.9,60.4,29.67,SW,218,1.0,12.0,77,0.00,,,0.14,0,Wunderground v.1.15,2013-05-23 01:08:00,
2013-05-22 21:13:00,67.7,60.2,29.66,SW,218,1.0,12.0,77,0.00,,,0.14,0,Wunderground v.1.15,2013-05-23 01:13:00,
2013-05-22 21:19:00,67.6,60.1,29.66,SW,234,1.0,12.0,77,0.00,,,0.14,0,Wunderground v.1.15,2013-05-23 01:19:00,
2013-05-22 21:24:00,67.5,60.0,29.67,SSW,213,1.0,12.0,77,0.00,,,0.14,0,Wunderground v.1.15,2013-05-23 01:24:00,
2013-05-22 21:30:00,67.3,60.0,29.66,SSW,213,0.0,-999.0,78,-99.99,,,0.14,,weatherlink.com 1.10,2013-05-23 01:30:00,
2013-05-22 21:35:00,67.2,60.1,29.66,SSW,213,0.0,12.0,78,0.00,,,0.14,0,Wunderground v.1.15,2013-05-23 01:35:00,
2013-05-22 21:41:00,66.8,60.1,29.67,SSW,213,0.0,12.0,79,0.00,,,0.14,0,Wunderground v.1.15,2013-05-23 01:41:00,
2013-05-22 21:46:00,66.7,60.3,29.67,SSW,213,0.0,12.0,80,0.00,,,0.14,0,Wunderground v.1.15,2013-05-23 01:46:00,
2013-05-22 21:51:00,66.5,60.1,29.67,SSW,213,0.0,12.0,80,0.00,,,0.14,0,Wunderground v.1.15,2013-05-23 01:51:00,
2013-05-22 21:56:00,66.3,60.3,29.67,SSW,213,0.0,12.0,81,0.00,,,0.14,0,Wunderground v.1.15,2013-05-23 01:56:00,
2013-05-22 22:02:00,66.2,60.2,29.67,SSW,213,0.0,5.0,81,0.00,,,0.14,0,Wunderground v.1.15,2013-05-23 02:02:00,
2013-05-22 22:08:00,66.2,59.8,29.67,SSW,213,1.0,5.0,80,0.00,,,0.14,0,Wunderground v.1.15,2013-05-23 02:08:00,
2013-05-22 22:14:00,66.2,59.8,29.68,SSW,198,3.0,5.0,80,0.00,,,0.14,0,Wunderground v.1.15,2013-05-23 02:14:00,
2013-05-22 22:20:00,66.2,59.8,29.69,SSW,198,3.0,5.0,80,0.00,,,0.14,0,Wunderground v.1.15,2013-05-23 02:20:00,
2013-05-22 22:25:00,66.3,59.9,29.69,SSW,203,3.0,5.0,80,0.00,,,0.14,0,Wunderground v.1.15,2013-05-23 02:25:00,
2013-05-22 22:31:00,66.5,59.8,29.69,South,191,3.0,5.0,79,0.00,,,0.14,0,Wunderground v.1.15,2013-05-23 02:31:00,
2013-05-22 22:37:00,66.7,60.0,29.69,SW,234,3.0,5.0,79,0.00,,,0.14,0,Wunderground v.1.15,2013-05-23 02:37:00,
2013-05-22 22:42:00,66.8,60.1,29.69,WSW,249,4.0,6.0,79,0.00,,,0.14,0,Wunderground v.1.15,2013-05-23 02:42:00,
2013-05-22 22:48:00,66.9,60.2,29.69,South,173,3.0,6.0,79,0.00,,,0.14,0,Wunderground v.1.15,2013-05-23 02:48:00,
2013-05-22 22:53:00,67.0,59.9,29.69,WSW,257,4.0,7.0,78,0.00,,,0.14,0,Wunderground v.1.15,2013-05-23 02:53:00,
2013-05-22 22:59:00,66.8,60.1,29.69,SSW,207,7.0,13.0,79,0.00,,,0.14,0,Wunderground v.1.15,2013-05-23 02:59:00,
2013-05-22 23:05:00,66.5,60.1,29.69,SW,222,9.0,12.0,80,0.00,,,0.14,0,Wunderground v.1.15,2013-05-23 03:05:00,
2013-05-22 23:10:00,66.1,60.1,29.69,SW,225,9.0,9.0,81,0.00,,,0.14,0,Wunderground v.1.15,2013-05-23 03:10:00,
2013-05-22 23:16:00,65.7,60.0,29.69,SW,234,0.0,-999.0,82,-99.99,,,0.14,,weatherlink.com 1.10,2013-05-23 03:16:00,
2013-05-22 23:21:00,65.4,59.8,29.69,SW,229,7.0,11.0,82,0.00,,,0.14,0,Wunderground v.1.15,2013-05-23 03:21:00,
2013-05-22 23:27:00,65.3,59.7,29.69,SW,220,6.0,11.0,82,0.00,,,0.14,0,Wunderground v.1.15,2013-05-23 03:27:00,
2013-05-22 23:32:00,65.2,59.6,29.69,SSW,203,5.0,10.0,82,0.00,,,0.14,0,Wunderground v.1.15,2013-05-23 03:32:00,
2013-05-22 23:38:00,65.0,59.4,29.69,SW,216,5.0,10.0,82,0.00,,,0.14,0,Wunderground v.1.15,2013-05-23 03:38:00,
2013-05-22 23:44:00,64.9,59.6,29.69,SSW,211,5.0,10.0,83,0.00,,,0.14,0,Wunderground v.1.15,2013-05-23 03:44:00,
2013-05-22 23:50:00,64.7,59.4,29.69,SW,218,4.0,7.0,83,0.00,,,0.14,0,Wunderground v.1.15,2013-05-23 03:50:00,
2013-05-22 23:56:00,64.5,59.6,29.69,SSW,206,4.0,7.0,84,0.00,,,0.14,0,Wunderground v.1.15,2013-05-23 03:56:00,